Regional Weather Roundup
Issued by NWS

Home | Current Version | Previous Version | Graphics & Text | Print | Product List | Glossary On
Versions: 1 2 3 4 5 6 7 8 9 10 11 12 13 14 15 16 17 18 19 20 21 22 23 24 25 26 27 28 29 30 31 32 33 34 35 36 37 38 39 40 41 42 43 44 45 46 47 48 49 50
167
ASUS43 KOAX 211202
RWRNE

WEATHER ROUNDUP FOR NEBRASKA
NATIONAL WEATHER SERVICE OMAHA NE
700 AM CDT MON MAY 21 2018

NOTES: SATELLITE DATA IS BEING USED TO AUGMENT CLOUD COVER ABOVE
       12000 FEET.
       "FAIR" INDICATES FEW OR NO CLOUDS BELOW 12,000 FEET WITH NO
       SIGNIFICANT WEATHER AND/OR OBSTRUCTIONS TO VISIBILITY.


NEZ001>004-019>022-054>056-211300-
NEBRASKA PANHANDLE

CITY           SKY/WX    TMP DP  RH WIND       PRES   REMARKS
SCOTTSBLUFF    CLEAR     46  45  96 E8        30.01F
6HR MIN TEMP:  45; 6HR MAX TEMP:  49;

ALLIANCE       CLEAR     41  41 100 S7        30.01F
6HR MIN TEMP:  40; 6HR MAX TEMP:  44;

CHADRON        CLEAR     40  39  97 CALM      30.00F
6HR MIN TEMP:  38; 6HR MAX TEMP:  47;

GORDON         FAIR      45  40  83 SW3       30.03F
6HR MIN TEMP:  41; 6HR MAX TEMP:  45;

KIMBALL        FOG       46  46  99 S10       30.04S VSB 1/2
SIDNEY         PTCLDY    46  45  96 S9        30.03F
6HR MIN TEMP:  43; 6HR MAX TEMP:  46;

$$

NEZ057>060-069>072-079>082-211300-
SOUTHWEST NEBRASKA

CITY           SKY/WX    TMP DP  RH WIND       PRES   REMARKS
NORTH PLATTE   PTCLDY    48  47  96 CALM      30.07F FOG
6HR MIN TEMP:  48; 6HR MAX TEMP:  52;

IMPERIAL       CLEAR     47  47 100 S8        30.07S
6HR MIN TEMP:  43; 6HR MAX TEMP:  48;

LEXINGTON      FOG       47  46  97 CALM      30.08S VSB 1/4
MCCOOK         FOG       44  44 100 CALM      30.09R VSB<1/4
6HR MIN TEMP:  43; 6HR MAX TEMP:  51;

OGALLALA       PTCLDY    47  46  96 CALM      30.06S
$$

NEZ005>010-023>029-035>040-094-211300-
NORTH CENTRAL NEBRASKA

CITY           SKY/WX    TMP DP  RH WIND       PRES   REMARKS
VALENTINE      CLEAR     43  42  97 CALM      30.05F
6HR MIN TEMP:  42; 6HR MAX TEMP:  53;

AINSWORTH      PTCLDY    46  46 100 CALM      30.05F
BROKEN BOW     CLOUDY    50  50 100 CALM      30.06S FOG
6HR MIN TEMP:  46; 6HR MAX TEMP:  50;

O`NEILL        PTCLDY    51  50  98 CALM      30.07S FOG
ORD            FOG       45  45 100 CALM      30.06F VSB<1/4
6HR MIN TEMP:  43; 6HR MAX TEMP:  52;

THEDFORD       FOG       48  47  97 CALM      30.07S VSB<1/4
$$

NEZ041-046>049-061>064-073>077-083>087-211300-
SOUTH CENTRAL NEBRASKA

CITY           SKY/WX    TMP DP  RH WIND       PRES   REMARKS
GRAND ISLAND   CLOUDY    49  48  97 W5        30.08S FOG
6HR MIN TEMP:  45; 6HR MAX TEMP:  52;

AURORA         FOG       49  49 100 NW3       30.08S VSB 3/4
HASTINGS       FOG       49  49 100 W6        30.09R VSB 1
6HR MIN TEMP:  48; 6HR MAX TEMP:  53;

HEBRON         CLOUDY    54  52  94 CALM      30.08F FOG
HOLDREGE       FOG       45  45 100 CALM      30.08S VSB<1/4
KEARNEY        FOG       46  45  96 CALM      30.08F VSB 1/4
YORK           FOG       48  48 100 W6        30.08S VSB<1/4
$$

NEZ011>018-030>034-042>045-211300-
NORTHEAST NEBRASKA

CITY           SKY/WX    TMP DP  RH WIND       PRES   REMARKS
NORFOLK        CLOUDY    52  52 100 W5        30.05F FOG
6HR MIN TEMP:  52; 6HR MAX TEMP:  53;

ALBION         CLEAR     47  47  99 N3        30.07F FOG
BLAIR          FOG       55  55  99 W3        30.05R VSB 1/4
COLUMBUS       PTCLDY    52  51  97 W8        30.08S
FREMONT        CLOUDY    55  55  98 NW6       30.05S FOG
TEKAMAH        CLOUDY    55  55 100 NW5       30.04R FOG
6HR MIN TEMP:  55; 6HR MAX TEMP:  56; 6HR PCP:  0.03;

WAYNE          CLOUDY    54  53  96 CALM      30.05S FOG
$$

NEZ050>053-065>068-078-088>093-211300-
SOUTHEAST NEBRASKA

CITY           SKY/WX    TMP DP  RH WIND       PRES   REMARKS
LINCOLN        MOCLDY    53  51  93 W6        30.07R FOG
6HR MIN TEMP:  53; 6HR MAX TEMP:  55;

OMAHA EPPLEY   DRZL/FOG  57  55  93 NW7       30.04R VSB 3/4
6HR MIN TEMP:  56; 6HR MAX TEMP:  59; 6HR PCP:  0.01;

BEATRICE       CLOUDY    55  54  95 W5        30.08R
FALLS CITY     CLOUDY    57  54  89 W8        30.05R
6HR MIN TEMP:  55; 6HR MAX TEMP:  58;

NEBRASKA CITY  CLOUDY    56  56 100 NW8       30.05R FOG
PLATTSMOUTH    CLOUDY    55  55 100 NW8       30.04S FOG
$$

NEZ044-045-051>053-067-211300-
OMAHA AREA

CITY           SKY/WX    TMP DP  RH WIND       PRES   REMARKS
OMAHA EPPLEY   DRZL/FOG  57  55  93 NW7       30.04R VSB 3/4
6HR MIN TEMP:  56; 6HR MAX TEMP:  59; 6HR PCP:  0.01;

BLAIR          FOG       55  55  99 W3        30.05R VSB 1/4
FREMONT        CLOUDY    55  55  98 NW6       30.05S FOG
MILLARD        CLOUDY    57  55  95 NW7       30.05R FOG
PLATTSMOUTH    CLOUDY    55  55 100 NW8       30.04S FOG
WAHOO          CLOUDY    55  53  92 NW9       30.05S FOG
$$




USA.gov is the U.S. government's official web portal to all federal, state and local government web resources and services.